Location: Maiden
(35.5760°N, 81.2120°W)
Time: 13:58:30
(UTC-04:00)

BREEZE-M DEB (TANK) - Pass Details

Date: 14 June 2018
Orbit: 304 x 14298 km, 49.5° (Epoch: 18 June)

Event Time Altitude Azimuth Distance (km) Brightness Sun altitude
Rises 23:05:08 0° 243° (WSW) 7,496 8.5 -22.4°
Reaches altitude 10° 23:12:21 10° 249° (WSW) 4,598 7.4 -23.2°
Maximum altitude 23:21:09 42° 319° (NW) 1,083 4.5 -24.2°
Drops below altitude 10° 23:24:17 10° 34° (NE) 1,646 5.3 -24.5°
Sets 23:25:42 0° 43° (NE) 2,273 6.0 -24.7°
